Regional Weather Roundup
Issued by NWS

Home | Current Version | Previous Version | Graphics & Text | Print | Product List | Glossary On
Versions: 1 2 3 4 5 6 7 8 9 10 11 12 13 14 15 16 17 18 19 20 21 22 23 24 25 26 27 28 29 30 31 32 33 34 35 36 37 38 39 40 41 42 43 44 45 46 47 48 49 50
265
ASUS43 KLMK 241202
RWRKY
KENTUCKY REGIONAL WEATHER ROUNDUP
NATIONAL WEATHER SERVICE LOUISVILLE KY
800 AM EDT SAT JUN 24 2017

NOTE "FAIR" INDICATES FEW OR NO CLOUDS BELOW 12,000 FEET
WITH NO SIGNIFICANT WEATHER AND/OR OBSTRUCTIONS TO VISIBILITY.

KYZ001>023-026-027-061>063-070>075-241300-
WESTERN AND SOUTH CENTRAL KENTUCKY

CITY           SKY/WX    TMP DP  RH WIND       PRES   REMARKS
PADUCAH        SUNNY     67  59  75 NW3       30.04R
HENDERSON      PTSUNNY   66  60  81 NW6       30.04R
OWENSBORO      MOSUNNY   68  61  78 NW7       30.02R
HOPKINSVILLE   PTSUNNY   68  64  87 NW6       30.03R
BOWLING GREEN  CLOUDY    70  68  93 NW5       30.01R
GLASGOW        NOT AVBL
$$

KYZ024-025-028>034-038-045-046-053-241300-
NORTH CENTRAL KENTUCKY

CITY           SKY/WX    TMP DP  RH WIND       PRES   REMARKS
LOUISVILLE/SDF PTSUNNY   69  63  81 NW3       29.98R
LOUISVILLE/LOU PTSUNNY   68  64  87 CALM      29.99R
FORT KNOX      PTSUNNY   64  64 100 NW3       29.98R
$$

KYZ035>037-039>044-047>052-055>060-089>105-241300-
NORTHEAST KENTUCKY

CITY           SKY/WX    TMP DP  RH WIND       PRES   REMARKS
LEXINGTON      CLOUDY    65  64  97 W3        29.98R FOG
COVINGTON      MOSUNNY   65  62  90 W6        29.95R
FRANKFORT      SUNNY     67  62  84 NW6       29.97R
$$

KYZ054-064>069-076>088-106>120-241300-
SOUTHEAST KENTUCKY

CITY           SKY/WX    TMP DP  RH WIND       PRES   REMARKS
JACKSON        CLOUDY    66  66 100 NW5       29.97R
LONDON         CLOUDY    70  67  90 CALM      29.98R
SOMERSET       CLOUDY    68  68 100 CALM      30.00R
MIDDLESBORO    CLOUDY    67  67 100 CALM      30.00R
MONTICELLO     MOSUNNY   70  68  93 VRB6      30.01R
$$





USA.gov is the U.S. government's official web portal to all federal, state and local government web resources and services.